This is the latest recevied weather packets stored in our database for station/object AC0MR. If no packets are shown the sender has not sent any weather packets the latest 10 day(s).
| Time | Temp. | Humidity | Pressure | Rain* | Wind** | Luminosity | Snow |
|---|---|---|---|---|---|---|---|
| 1777748718 | 15° C | 33% | 1018.4 hPa | 0 mm | - | 956 W/m² | - |
| 1777748118 | 15.56° C | 35% | 1018.4 hPa | 0 mm | - | 719 W/m² | - |
| 1777747518 | 15.56° C | 34% | 1018.5 hPa | 0 mm | - | 932 W/m² | - |
| 1777746918 | 15.56° C | 38% | 1018.7 hPa | 0 mm | - | 927 W/m² | - |
| 1777746318 | 15° C | 36% | 1018.8 hPa | 0 mm | - | 1004 W/m² | - |
| 1777745718 | 15° C | 36% | 1018.8 hPa | 0 mm | - | 946 W/m² | - |
| 1777745118 | 15° C | 33% | 1019 hPa | 0 mm | - | 988 W/m² | - |
| 1777744518 | 14.44° C | 37% | 1019.1 hPa | 0 mm | - | 968 W/m² | - |
| 1777743918 | 14.44° C | 36% | 1019.3 hPa | 0 mm | - | 963 W/m² | - |
| 1777743318 | 14.44° C | 39% | 1019.2 hPa | 0 mm | - | 940 W/m² | - |
| 1777742718 | 13.89° C | 39% | 1019.4 hPa | 0 mm | - | 992 W/m² | - |
| 1777742118 | 14.44° C | 36% | 1019.6 hPa | 0 mm | - | 227 W/m² | - |
| 1777741518 | 13.89° C | 39% | 1019.7 hPa | 0 mm | - | 941 W/m² | - |
| 1777740918 | 13.89° C | 36% | 1019.8 hPa | 0 mm | - | 398 W/m² | - |
| 1777740318 | 14.44° C | 37% | 1019.8 hPa | 0 mm | - | 869 W/m² | - |
| 1777739718 | 13.89° C | 38% | 1019.9 hPa | 0 mm | - | 891 W/m² | - |
| 1777739118 | 13.33° C | 43% | 1019.8 hPa | 0 mm | - | 947 W/m² | - |
| 1777738518 | 13.33° C | 39% | 1020 hPa | 0 mm | - | 507 W/m² | - |
| 1777737918 | 12.78° C | 39% | 1020.1 hPa | 0 mm | - | 810 W/m² | - |
| 1777737317 | 12.78° C | 42% | 1020.1 hPa | 0 mm | - | 777 W/m² | - |
| 1777736718 | 12.78° C | 46% | 1020.1 hPa | 0 mm | - | 749 W/m² | - |
| 1777736118 | 12.78° C | 43% | 1020.1 hPa | 0 mm | - | 726 W/m² | - |
| 1777735518 | 12.22° C | 45% | 1020.2 hPa | 0 mm | - | 708 W/m² | - |
| 1777734918 | 12.22° C | 47% | 1020.2 hPa | 0 mm | - | 684 W/m² | - |
| 1777734318 | 11.67° C | 52% | 1020.3 hPa | 0 mm | - | 656 W/m² | - |
* Rain latest hour (hover to see other rain measurements)
** Current wind speed in m/s (hover to see current wind gust speed)